Starlink 34291

operational
NORAD ID: 64359 Int'l Des: 2025-126 Owner: SPXS Country: US Constellation: starlink
LEOCIRCULAR

Über Starlink 34291

Beschreibung wird geladen...

Live-Position

3D-Globus wird geladen...

Nächste Überflüge

Höhenverlauf

Altitude vs Time

uPlot chart will show altitude changes over time

Zweizeiliger Elementsatz

1 64359U 25126R 25341.03122431 .01096558 00000-0 81078-1 0 9993
2 64359 70.0020 268.0291 0012104 299.1193 60.8755 14.99976723 26802
Epoch: 7. Dez. 2025 • Age: 22 hours

Aktueller Status

Höhe 577.7 km
Geschwindigkeit 7.58 km/s
Subsatellitenpunkt -67.07°S, 148.01°E
Startdatum 13. Juni 2025
Alter 0.4 years
Typ internet

Technische Details

Klassifizierung Payload
Masse 575.00 kg
Trockenmasse 530.00 kg
Gesamtmasse 575.00 kg
Länge 0.30 m
Durchmesser 4.10 m
Spannweite 29.00 m
Form Box + pan
Hersteller SPXS
Bus-Typ Starlink V2MO
Phasenstatus In Orbit
Besitzer/Staat SPXS/US

Große Konstellationen

Loading constellations...